Regional Weather Roundup
Issued by NWS Charleston, WV

Home | Current Version | Previous Version | Graphics & Text | Print | Product List | Glossary On
Versions: 1 2 3 4 5 6 7 8 9 10 11 12 13 14 15 16 17 18 19 20 21 22 23 24 25 26 27 28 29 30 31 32 33 34 35 36 37 38 39 40 41 42 43 44 45 46 47 48 49 50
000
ASUS41 KRLX 271410
RWRRLX
West Virginia Regional Weather Roundup
National Weather Service Charleston WV
900 AM EST FRI FEB 27 2015

Note: "fair" indicates few or no clouds below 12,000 feet with no
significant weather and/or obstructions to visibility.

WVZ003-271500-
Northern Panhandle of West Virginia

CITY           SKY/WX    TMP DP  RH WIND       PRES   REMARKS
WHEELING       SUNNY      6   0  76 VRB3      30.46R
$$

WVZ009-271500-
Northwest West Virginia

CITY           SKY/WX    TMP DP  RH WIND       PRES   REMARKS
PARKERSBURG    SUNNY     11   1  64 NW7       30.53R WCI   0
$$

WVZ006-271500-
Western West Virginia

CITY           SKY/WX    TMP DP  RH WIND       PRES   REMARKS
HUNTINGTON     SUNNY     12   5  73 NE6       30.52R WCI   3
$$

WVZ015-271500-
West Central West Virginia

CITY           SKY/WX    TMP DP  RH WIND       PRES   REMARKS
CHARLESTON     MOSUNNY   13   4  67 VRB5      30.48R WCI   5
$$

WVZ022-031-271500-
North Central West Virginia

CITY           SKY/WX    TMP DP  RH WIND       PRES   REMARKS
CLARKSBURG     MOSUNNY   10   2  69 N7        30.43R WCI  -1
MORGANTOWN     LGT SNOW N/A N/A N/A N3        30.44R
$$

WVZ025-035-042-045-271500-
Southern West Virginia

CITY           SKY/WX    TMP DP  RH WIND       PRES   REMARKS
BECKLEY        LGT SNOW  14   8  77 N9        30.31R WCI   2
LOGAN          CLOUDY    14  10  85 CALM      30.38R FOG
BLUEFIELD      LGT SNOW  19  11  70 NW6       30.27R
LEWISBURG      CLOUDY    21  10  62 W3        30.29R
$$

WVZ047-271500-
Northern Mountains of West Virginia

CITY           SKY/WX    TMP DP  RH WIND       PRES   REMARKS
ELKINS         LGT SNOW N/A N/A N/A VRB3      30.34R
$$

WVZ052-271500-
Eastern Panhandle of West Virginia

CITY           SKY/WX    TMP DP  RH WIND       PRES   REMARKS
MARTINSBURG    SUNNY     23   6  48 NW10      30.40R
PETERSBURG     SUNNY     22   6  49 NE5       30.39R
$$



USA.gov is the U.S. government's official web portal to all federal, state and local government web resources and services.